Location: La Oliva
(42.2466°N, 2.9955°E)
Time: 09:43:08
(UTC+00:00)

BREEZE-M DEB (TANK) - Pass Details

Date: 22 April 2021
Orbit: 292 x 15380 km, 49.4° (Epoch: 10 May)

Event Time Altitude Azimuth Distance (km) Brightness Sun altitude
Rises 21:56:56 0° 296° (WNW) 5,794 8.8 -29.7°
Reaches altitude 10° 22:02:23 10° 299° (WNW) 3,295 7.4 -30.3°
Enters shadow 22:07:10 38° 309° (NW) 1,001 4.4 -30.7°
